Weather History for Indiana, PA

Change the Weather History Date:

Sunday, October 9, 2011

  Actual Average Record
Temperature  
Mean Temperature 62 °F -  
Max Temperature 80 °F 64 °F 84 °F (1949)
Min Temperature 44 °F 44 °F 28 °F (1953)
Degree Days  
Heating Degree Days 3    
Growing Degree Days 12 (Base 50)    
Moisture  
Dew Point 52 °F    
Average Humidity 75    
Maximum Humidity 100    
Minimum Humidity 34    
Precipitation  
Precipitation 0.00 in - - ()
Sea Level Pressure  
Sea Level Pressure 30.44 in    
Wind  
Wind Speed 2 mph (ESE)    
Max Wind Speed 7 mph    
Max Gust Speed -    
Visibility 10 miles    
Events      
Averages and records for this station are not official NWS values.
T = Trace of Precipitation, MM = Missing Value Source: NWS Daily Summary

Daily Weather History Graph

Daily Weather History Graph

Search for Another Location

Airport:

Trip Planner

Search our weather history database for the weather conditions in past years. The results will help you decide how hot, cold, wet, or windy it might be!

Date:

Astronomy

Oct. 09, 2011 Rise Set
Actual Time 7:20 AM EDT 6:45 PM EDT
Civil Twilight 6:53 AM EDT 7:13 PM EDT
Nautical Twilight 6:21 AM EDT 7:44 PM EDT
Astronomical Twilight 5:50 AM EDT 8:16 PM EDT
Moon 5:22 PM EDT (10/9) 5:03 AM EDT (10/9)
Length of Visible Light 12h 19m
Length of Day
11h 25m
Waxing Gibbous, 95% of the Moon is Illuminated
Oct 9
Waxing Gibbous
Oct 11
Full
Oct 19
Last Quarter
Oct 26
New
Nov 2
First Quarter

Hourly Weather History & Observations

Time (EDT) Temp. Windchill Dew Point Humidity Pressure Visibility Wind Dir Wind Speed Gust Speed Precip Events Conditions
12:15 AM 53.6 °F - 53.6 °F 100% 30.47 in 10.0 mi Calm Calm - N/A   Clear
12:35 AM 53.6 °F - 53.6 °F 100% 30.47 in 10.0 mi SE 5.8 mph - N/A   Clear
12:55 AM 57.2 °F - 53.6 °F 88% 30.47 in 10.0 mi ESE 4.6 mph - N/A   Clear
1:15 AM 53.6 °F - 51.8 °F 94% 30.47 in 10.0 mi ESE 4.6 mph - N/A   Clear
1:35 AM 51.8 °F - 51.8 °F 100% 30.47 in 10.0 mi ESE 4.6 mph - N/A   Clear
1:55 AM 55.4 °F - 53.6 °F 94% 30.46 in 10.0 mi ESE 6.9 mph - N/A   Clear
2:15 AM 55.4 °F - 53.6 °F 94% 30.46 in 10.0 mi ESE 5.8 mph - N/A   Clear
2:35 AM 53.6 °F - 53.6 °F 100% 30.46 in 10.0 mi Calm Calm - N/A   Clear
2:55 AM 51.8 °F - 51.8 °F 100% 30.46 in 10.0 mi Calm Calm - N/A   Clear
3:15 AM 51.8 °F - 51.8 °F 100% 30.45 in 10.0 mi Calm Calm - N/A   Clear
3:35 AM 50.0 °F - 50.0 °F 100% 30.45 in 10.0 mi Calm Calm - N/A   Clear
3:55 AM 51.8 °F - 51.8 °F 100% 30.45 in 10.0 mi Calm Calm - N/A   Clear
4:15 AM 50.0 °F - 50.0 °F 100% 30.44 in 10.0 mi Calm Calm - N/A   Clear
4:35 AM 48.2 °F - 48.2 °F 100% 30.45 in 10.0 mi East 3.5 mph - N/A   Clear
5:15 AM 48.2 °F - 48.2 °F 100% 30.45 in 10.0 mi Calm Calm - N/A   Clear
5:35 AM 48.2 °F - 48.2 °F 100% 30.46 in 10.0 mi Calm Calm - N/A   Clear
5:55 AM 48.2 °F - 48.2 °F 100% 30.46 in 10.0 mi Calm Calm - N/A   Clear
6:15 AM 46.4 °F - 46.4 °F 100% 30.47 in 10.0 mi Calm Calm - N/A   Clear
6:35 AM 46.4 °F - 46.4 °F 100% 30.47 in 10.0 mi Calm Calm - N/A   Clear
6:55 AM 44.6 °F 43.1 °F 44.6 °F 100% 30.47 in 10.0 mi East 3.5 mph - N/A   Clear
7:15 AM 44.6 °F 43.1 °F 44.6 °F 100% 30.48 in 10.0 mi ESE 3.5 mph - N/A   Clear
7:35 AM 44.6 °F - 44.6 °F 100% 30.48 in 10.0 mi Calm Calm - N/A   Clear
8:15 AM 48.2 °F - 48.2 °F 100% 30.49 in 10.0 mi Calm Calm - N/A   Clear
8:35 AM 51.8 °F - 51.8 °F 100% 30.50 in 10.0 mi ESE 3.5 mph - N/A   Clear
8:55 AM 53.6 °F - 51.8 °F 94% 30.50 in 10.0 mi East 3.5 mph - N/A   Clear
9:15 AM 55.4 °F - 53.6 °F 94% 30.50 in 10.0 mi East 3.5 mph - N/A   Clear
9:35 AM 57.2 °F - 53.6 °F 88% 30.50 in 10.0 mi East 4.6 mph - N/A   Clear
9:55 AM 60.8 °F - 53.6 °F 77% 30.49 in 10.0 mi East 3.5 mph - N/A   Clear
10:15 AM 62.6 °F - 55.4 °F 77% 30.49 in 10.0 mi East 3.5 mph - N/A   Clear
10:35 AM 64.4 °F - 55.4 °F 73% 30.49 in 10.0 mi Calm Calm - N/A   Clear
10:55 AM 66.2 °F - 55.4 °F 68% 30.48 in 10.0 mi Calm Calm - N/A   Clear
11:15 AM 69.8 °F - 57.2 °F 64% 30.48 in 10.0 mi Calm Calm - N/A   Clear
11:35 AM 71.6 °F - 57.2 °F 60% 30.47 in 10.0 mi Calm Calm - N/A   Clear
11:55 AM 71.6 °F - 55.4 °F 57% 30.46 in 10.0 mi Calm Calm - N/A   Clear
12:15 PM 73.4 °F - 55.4 °F 53% 30.46 in 10.0 mi Calm Calm - N/A   Clear
12:35 PM 75.2 °F - 55.4 °F 50% 30.45 in 10.0 mi Calm Calm - N/A   Clear
12:55 PM 77.0 °F - 51.8 °F 41% 30.44 in 10.0 mi Calm Calm - N/A   Clear
1:15 PM 77.0 °F - 51.8 °F 41% 30.43 in 10.0 mi Calm Calm - N/A   Clear
1:35 PM 78.8 °F - 51.8 °F 39% 30.42 in 10.0 mi Calm Calm - N/A   Clear
1:55 PM 78.8 °F - 51.8 °F 39% 30.42 in 10.0 mi Calm Calm - N/A   Clear
2:15 PM 78.8 °F - 51.8 °F 39% 30.41 in 10.0 mi Calm Calm - N/A   Clear
2:35 PM 80.6 °F - 51.8 °F 37% 30.40 in 10.0 mi Calm Calm - N/A   Clear
2:55 PM 78.8 °F - 51.8 °F 39% 30.39 in 10.0 mi Calm Calm - N/A   Clear
3:15 PM 80.6 °F - 50.0 °F 34% 30.39 in 10.0 mi Calm Calm - N/A   Clear
3:35 PM 80.6 °F - 51.8 °F 37% 30.39 in 7.0 mi Calm Calm - N/A   Clear
4:15 PM 80.6 °F - 53.6 °F 39% 30.38 in 10.0 mi Calm Calm - N/A   Clear
4:35 PM 80.6 °F - 51.8 °F 37% 30.37 in 10.0 mi Calm Calm - N/A   Clear
4:55 PM 80.6 °F - 51.8 °F 37% 30.37 in 10.0 mi NNW 3.5 mph - N/A   Clear
5:15 PM 78.8 °F - 51.8 °F 39% 30.37 in 10.0 mi NNW 3.5 mph - N/A   Clear
5:35 PM 77.0 °F - 53.6 °F 44% 30.37 in 10.0 mi Calm Calm - N/A   Clear
5:55 PM 75.2 °F - 51.8 °F 44% 30.37 in 10.0 mi Calm Calm - N/A   Clear
6:15 PM 73.4 °F - 53.6 °F 50% 30.37 in 10.0 mi Calm Calm - N/A   Clear
6:35 PM 69.8 °F - 59.0 °F 68% 30.37 in 10.0 mi Calm Calm - N/A   Clear
6:55 PM 66.2 °F - 59.0 °F 78% 30.37 in 10.0 mi Calm Calm - N/A   Clear
7:35 PM 62.6 °F - 57.2 °F 82% 30.38 in 10.0 mi Calm Calm - N/A   Clear
7:55 PM 60.8 °F - 57.2 °F 88% 30.38 in 10.0 mi East 3.5 mph - N/A   Clear
8:35 PM 59.0 °F - 55.4 °F 88% 30.38 in 10.0 mi Calm Calm - N/A   Clear
8:55 PM 57.2 °F - 55.4 °F 94% 30.39 in 10.0 mi Calm Calm - N/A   Clear
9:15 PM 57.2 °F - 55.4 °F 94% 30.39 in 10.0 mi Calm Calm - N/A   Clear
9:35 PM 55.4 °F - 55.4 °F 100% 30.39 in 10.0 mi Calm Calm - N/A   Clear
9:55 PM 57.2 °F - 55.4 °F 94% 30.39 in 10.0 mi Calm Calm - N/A   Clear
10:15 PM 55.4 °F - 53.6 °F 94% 30.39 in 10.0 mi East 3.5 mph - N/A   Clear
10:35 PM 55.4 °F - 53.6 °F 94% 30.39 in 10.0 mi Calm Calm - N/A   Clear
10:55 PM 53.6 °F - 53.6 °F 100% 30.39 in 10.0 mi Calm Calm - N/A   Clear
11:15 PM 53.6 °F - 53.6 °F 100% 30.39 in 10.0 mi Calm Calm - N/A   Clear
11:35 PM 53.6 °F - 53.6 °F 100% 30.39 in 10.0 mi Calm Calm - N/A   Clear
11:55 PM 53.6 °F - 53.6 °F 100% 30.38 in 10.0 mi Calm Calm - N/A   Clear